This demonstration page uses our WeatherBlox Daily Observations layout. Learn more.

40.92945, -100.16068

Hourly Observations for June 30, 2017

Temp ( °F °C ) Dew Point ( °F °C ) Humidity (%) Winds ( mph kmh ) Pressure ( in mb ) Visibility ( mi km ) Precip ( " mm )
12:15 am 00:15 Clear 67 19.5 52 11.3 59 59 N 12 19 29.94 1014 10 16.0934 0 0
12:35 am 00:35 Clear 66 18.8 54 12.1 65 65 N 8 13 29.94 1014 10 16.0934 0 0
12:55 am 00:55 Clear 63 17.2 55 12.5 74 74 NNW 7 11 29.94 1014 10 16.0934 0 0
1:15 am 01:15 Clear 62 16.5 55 12.7 78 78 NNW 6 9 29.94 1014 10 16.0934 0 0
1:35 am 01:35 Clear 63 17 55 12.5 75 75 N 9 15 29.94 1014 10 16.0934 0 0
1:55 am 01:55 Clear 63 17.1 54 12.2 73 73 N 10 17 29.91 1013 10 16.0934 0 0
2:15 am 02:15 Clear 62 16.4 54 12 75 75 NNW 8 13 29.91 1013 10 16.0934 0 0
2:35 am 02:35 Clear 61 16 54 12 77 77 NNW 10 17 29.94 1014 10 16.0934 0 0
2:55 am 02:55 Clear 61 15.9 53 11.6 76 76 NNW 5 7 29.94 1014 10 16.0934 0 0
3:15 am 03:15 Clear 58 14.7 52 11.2 80 80 Calm 29.97 1015 10 16.0934 0 0
3:35 am 03:35 Clear 56 13.6 53 11.4 87 87 S 6 9 30 1016 10 16.0934 0 0
3:55 am 03:55 Clear 58 14.7 53 11.5 81 81 ENE 3 6 29.97 1015 10 16.0934 0 0
4:15 am 04:15 Clear 57 13.9 52 11.1 83 83 NNE 7 11 29.97 1015 10 16.0934 0 0
4:35 am 04:35 Clear 56 13.6 52 11 84 84 NNW 6 9 29.97 1015 10 16.0934 0 0
4:55 am 04:55 Clear 56 13.1 52 10.9 87 87 Calm 30 1016 10 16.0934 0 0
5:15 am 05:15 Clear 55 12.8 52 10.9 88 88 W 3 6 30 1016 10 16.0934 0 0
5:35 am 05:35 Clear 55 12.8 52 11 89 89 NNW 5 7 30.03 1017 10 16.0934 0 0
5:55 am 05:55 Clear 56 13.1 53 11.5 90 90 Calm 30.03 1017 10 16.0934 0 0
6:15 am 06:15 Sunny 56 13.3 53 11.8 91 91 N 3 6 30.03 1017 10 16.0934 0 0
6:35 am 06:35 Sunny 56 13.5 53 11.7 89 89 WNW 6 9 30 1016 10 16.0934 0 0
6:55 am 06:55 Sunny 57 13.9 54 12.1 89 89 WNW 8 13 30 1016 10 16.0934 0 0
7:15 am 07:15 Sunny 58 14.6 54 12.2 86 86 WNW 6 9 30 1016 10 16.0934 0 0
7:35 am 07:35 Sunny 59 15.2 55 12.5 84 84 WNW 6 9 30.03 1017 10 16.0934 0 0
7:55 am 07:55 Sunny 60 15.6 55 12.8 84 84 W 5 7 30.03 1017 10 16.0934 0 0
8:15 am 08:15 Sunny 60 15.5 55 12.9 85 85 Calm 30.03 1017 10 16.0934 0 0
8:35 am 08:35 Sunny 61 15.9 56 13.1 84 84 Calm 30.03 1017 10 16.0934 0 0
8:55 am 08:55 Sunny 61 16.3 56 13.2 82 82 NNW 5 7 30.03 1017 10 16.0934 0 0
9:15 am 09:15 Sunny 62 16.7 55 13 79 79 NNW 5 7 30.03 1017 10 16.0934 0 0
9:35 am 09:35 Sunny 64 17.6 55 12.9 74 74 NNW 8 13 30.03 1017 10 16.0934 0 0
9:55 am 09:55 Sunny 64 17.8 54 12.1 69 69 NNW 8 13 30 1016 10 16.0934 0 0
10:15 am 10:15 Sunny 64 17.6 54 12.1 70 70 NW 7 11 30 1016 10 16.0934 0 0
10:35 am 10:35 Sunny 64 17.7 54 12.1 70 70 W 6 9 30.03 1017 7 11.26538 0 0
10:55 am 10:55 Partly Cloudy 65 18.3 54 12.4 69 69 W 6 9 30.03 1017 10 16.0934 0 0
11:15 am 11:15 Mostly Cloudy 65 18.5 54 12.4 68 68 W 6 9 30.03 1017 10 16.0934 0 0
11:35 am 11:35 Partly Cloudy 66 19 54 12.2 65 65 NW 7 11 30.03 1017 10 16.0934 0 0
11:55 am 11:55 Sunny 66 19.1 53 11.8 63 63 W 7 11 30.03 1017 10 16.0934 0 0
12:15 pm 12:15 Partly Cloudy 69 20.3 54 12 59 59 W 5 7 30.03 1017 10 16.0934 0 0
12:35 pm 12:35 Partly Cloudy 69 20.6 54 12.1 58 58 SW 8 13 29.97 1015 10 16.0934 0 0
12:55 pm 12:55 Sunny 70 20.9 54 12.2 58 58 SW 8 13 29.97 1015 10 16.0934 0 0
1:15 pm 13:15 Sunny 70 21.3 54 12 56 56 WSW 5 7 29.97 1015 10 16.0934 0 0
1:35 pm 13:35 Sunny 72 22.1 54 12.1 53 53 WSW 6 9 29.97 1015 10 16.0934 0 0
1:55 pm 13:55 Sunny 73 22.7 53 11.7 50 50 WSW 8 13 29.97 1015 10 16.0934 0 0
2:15 pm 14:15 Sunny 73 23 53 11.6 49 49 SW 6 9 29.97 1015 10 16.0934 0 0
2:35 pm 14:35 Sunny 74 23.5 53 11.7 48 48 WSW 7 11 29.97 1015 10 16.0934 0 0
2:55 pm 14:55 Partly Cloudy 75 23.8 53 11.9 47 47 WNW 8 13 29.97 1015 10 16.0934 0 0
3:15 pm 15:15 Mostly Cloudy with Light Rain 69 20.3 57 13.8 66 66 NNW 12 19 30 1016 10 16.0934 0 0
3:35 pm 15:35 Cloudy 68 19.8 58 14.4 71 71 WNW 6 9 30 1016 10 16.0934 0 0
3:55 pm 15:55 Cloudy with Rain 62 16.7 55 12.9 78 78 W 18 30 30.06 1018 3 4.82802 0.03 0.762
4:15 pm 16:15 Mostly Cloudy with Light Rain 62 16.6 54 12.4 76 76 WSW 8 13 30.03 1017 10 16.0934 0.05 1.27
4:35 pm 16:35 Partly Cloudy 65 18.6 55 12.5 68 68 W 6 9 30 1016 10 16.0934 0.05 1.27
4:55 pm 16:55 Partly Cloudy 66 19 56 13.6 71 71 WSW 7 11 30 1016 10 16.0934 0.05 1.27
5:15 pm 17:15 Sunny 67 19.6 58 14.5 73 73 W 7 11 30 1016 10 16.0934 0 0
5:35 pm 17:35 Sunny 71 21.8 58 14.3 63 63 WNW 8 13 29.97 1015 10 16.0934 0 0
5:55 pm 17:55 Sunny 73 22.6 57 13.7 57 57 WNW 9 15 29.97 1015 10 16.0934 0 0
6:15 pm 18:15 Sunny 73 22.6 56 13.6 57 57 NNW 7 11 29.97 1015 10 16.0934 0 0
6:35 pm 18:35 Sunny 73 22.7 55 12.7 53 53 N 3 6 29.97 1015 10 16.0934 0 0
7:15 pm 19:15 Sunny 73 22.8 56 13.6 56 56 WSW 3 6 29.94 1014 10 16.0934 0 0
7:35 pm 19:35 Sunny 73 22.7 56 13.4 56 56 WSW 3 6 29.94 1014 10 16.0934 0 0
7:55 pm 19:55 Sunny 73 22.6 56 13.5 57 57 WSW 3 6 29.94 1014 10 16.0934 0 0
8:15 pm 20:15 Sunny 72 22.4 56 13.5 57 57 Calm 29.94 1014 10 16.0934 0 0
8:35 pm 20:35 Sunny 71 21.9 58 14.4 63 63 Calm 29.94 1014 10 16.0934 0 0
8:55 pm 20:55 Sunny 69 20.6 59 14.8 70 70 WSW 3 6 29.94 1014 10 16.0934 0 0
9:15 pm 21:15 Clear 68 20 59 14.8 72 72 SW 3 6 29.97 1015 10 16.0934 0 0
9:35 pm 21:35 Clear 66 18.7 59 14.8 78 78 Calm 29.97 1015 10 16.0934 0 0
9:55 pm 21:55 Clear 64 18 58 14.7 81 81 Calm 30 1016 10 16.0934 0 0
10:15 pm 22:15 Clear 66 19 58 14.4 75 75 Calm 30 1016 10 16.0934 0 0
10:35 pm 22:35 Clear 63 17.2 58 14.5 84 84 S 3 6 30 1016 10 16.0934 0 0
10:55 pm 22:55 Clear 62 16.8 58 14.2 85 85 SSW 3 6 30.03 1017 10 16.0934 0 0
11:15 pm 23:15 Clear 62 16.6 57 14.1 85 85 Calm 30.06 1018 10 16.0934 0 0
11:35 pm 23:35 Clear 62 16.4 57 13.7 84 84 SW 3 6 30.06 1018 10 16.0934 0 0
11:55 pm 23:55 Clear 61 16 56 13.5 85 85 Calm 30.06 1018 10 16.0934 0 0

Powered by AerisWeather